Tracking 30743 objects as of 23-Jun-2025
HD Live streaming from Space Station
objects crossing your sky now

COSMOS 823

Track COSMOS 823 now!
10-day predictions
COSMOS 823 is classified as:


NORAD ID: 8873
Int'l Code: 1976-051A
Perigee: 976.9 km
Apogee: 1,011.4 km
Inclination: 83.0 °
Period: 104.8 minutes
Semi major axis: 7365 km
RCS: 1.7893 m2 (large)
Launch date: June 2, 1976
Source: Commonwealth of Independent States (former USSR) (CIS)
Launch site: PLESETSK MISSILE AND SPACE COMPLEX (PKMTR)
Your satellite tracking list
Your tracking list is empty




NASA's NSSDC Master Catalog

Two Line Element Set (TLE):
1 08873U 76051A   25173.40369807  .00000040  00000-0  26842-4 0  9990
2 08873  82.9663  41.2977 0023402 134.9622  37.7605 13.73503219457750
Source of the keplerian elements: AFSPC